Weather Roundup
Issued by NWS

Home | Current Version | Previous Version | Text Only | Print | Product List | Glossary On
Versions: 1 2 3 4 5 6 7 8 9 10 11 12 13 14 15 16 17 18 19 20 21 22 23 24 25 26 27 28 29 30 31 32 33 34 35 36 37 38 39 40 41 42 43 44 45 46 47 48 49 50
461
NZUS93 KARX 161310
HRRWXR

CURRENT HOURLY OBSERVATIONS ACROSS
MUCH OF THE UPPER MISSISSIPPI VALLEY
NATIONAL WEATHER SERVICE LA CROSSE WI
700 AM CST TUE JAN 16 2018


...SOUTHEAST MINNESOTA...


CITY           SKY/WX    TMP DP  RH WIND       PRES   REMARKS
ROCHESTER      CLOUDY     1  -1  91 NW13      30.57R WCI -17
ROCHESTER/MAYO CLOUDY     2  -1  87 NW14      30.59R WCI -17
WINONA         FAIR       1   0  92 NW3         N/A
AUSTIN         CLOUDY    -2  -8  78 NW13      30.59R FOG     WCI -21
ALBERT LEA     CLOUDY    -4  -9  77 NW7       30.61S HAZE    WCI -18
DODGE CENTER   LGT SNOW   1  -2  85 NW13      30.58R WCI -16
PRESTON        CLOUDY     1  -4  82 NW13      30.56R WCI -17
OWATONNA       CLOUDY    -4  -8  84 W10       30.63R WCI -21
FARIBAULT      CLOUDY     0  -4  85 NW12      30.64S WCI -18
$$

...ELSEWHERE IN MINNESOTA...


CITY           SKY/WX    TMP DP  RH WIND       PRES   REMARKS
MINNEAPOLIS    CLOUDY     1  -2  87 NW10      30.68R WCI -15
INTNL FALLS    MOCLDY    -8 -12  83 W3        30.65S
DULUTH         FAIR      -4  -7  87 N8        30.57R WCI -19
RED WING       CLOUDY     3  -2  78 W6        30.63R WCI  -8
REDWOOD FALLS  CLOUDY   -10 -14  82 NW9       30.74R WCI -27
MANKATO        CLOUDY    -6 -11  79 NW15      30.69R HAZE    WCI -27
WORTHINGTON    CLOUDY   -10 -14  82 NW14      30.67R WCI -31
FAIRMONT       LGT SNOW  -6 -11  79 MISG      30.68R
$$

...SOUTHWEST WISCONSIN...


CITY           SKY/WX    TMP DP  RH WIND       PRES   REMARKS
LA CROSSE      FAIR       5   0  79 N7        30.58R WCI  -7
PRAIRIE DU CHI FAIR       4  -2  77 NW5       30.56R WCI  -5
BOSCOBEL       FAIR      -1  -6  79 CALM      30.55R
LONE ROCK      FAIR       2  -1  88 W9        30.52R WCI -13
PLATTEVILLE    FAIR       5   3  91 NW10      30.49R WCI -10
FORT MC COY    FLURRIES  -1  -4  88 CALM      30.55R
CAMP DOUGLAS   PTCLDY     3   0  85 W8        30.52R WCI -10
MAUSTON-NEW LI FAIR       3   1  90 NW6       30.49S WCI  -8
VIROQUA        CLOUDY     6   5  94 NW9       30.48R WCI  -8
WIS DELLS      CLOUDY     9   6  88 NW5       30.47R WCI   1
$$

...ELSEWHERE IN WISCONSIN...


CITY           SKY/WX    TMP DP  RH WIND       PRES   REMARKS
MILWAUKEE      LGT SNOW  19  15  84 NW9       30.40R FOG     WCI   8
MADISON        LGT SNOW  11   7  84 NW12      30.45R FOG     WCI  -3
GREEN BAY      FAIR       8   3  80 N7        30.47R WCI  -3
EAU CLAIRE     FLURRIES  -2  -3  96 CALM      30.56R
BLACK RVR FLS  FAIR       6   1  82 NW5       30.54R WCI  -3
MEDFORD        CLOUDY     9   6  87 N8        30.46R WCI  -3
WAUSAU         FLURRIES   4   2  91 NW7       30.45R WCI  -8
WIS RAPIDS     FAIR       5   0  79 N5        30.49R WCI  -4
MARSHFIELD     MOCLDY     6   2  83 N9        30.45S WCI  -8
RICE LAKE      CLOUDY     4   0  86 CALM      30.59R
$$

...NORTHEAST IOWA...


CITY           SKY/WX    TMP DP  RH WIND       PRES   REMARKS
WATERLOO       CLOUDY     0  -6  76 NW14      30.60R WCI -19
DUBUQUE        FAIR       5   0  79 N8        30.49R WCI  -8
DECORAH        CLOUDY     7   3  85 NW12      30.53R WCI  -9
MASON CITY     LGT SNOW  -3  -8  79 NW21      30.62R WCI -26
CHARLES CITY   CLOUDY     0  -4  85 NW15      30.59R WCI -20
OELWEIN        CLOUDY     3   1  92 NW14      30.55S WCI -15
$$

...ELSEWHERE IN IOWA...


CITY           SKY/WX    TMP DP  RH WIND       PRES   REMARKS
DES MOINES     LGT SNOW  -3 -10  72 NW13      30.65S WCI -22
IOWA CITY      CLOUDY     3  -4  72 NW8       30.61R WCI -10
FORT DODGE     LGT SNOW  -5 -10  79 NW12      30.67R WCI -23
MARSHALLTOWN   LGT SNOW  -1  -6  79 NW17      30.61R WCI -22
CEDAR RAPIDS   CLOUDY     3  -3  76 NW16      30.56R WCI -16
$$

...NORTHERN ILLINOIS...


CITY           SKY/WX    TMP DP  RH WIND       PRES   REMARKS
CHICAGO-OHARE  LGT SNOW  14   9  80 NW13      30.39R WCI   0
CHICAGO-MIDWAY LGT SNOW  10   6  84 SW8       30.41R FOG     WCI  -2
MOLINE         FLURRIES   3  -3  76 W9        30.56R WCI -12
ROCKFORD       FLURRIES  12   8  84 NW9       30.47R WCI   0
PEORIA         LGT SNOW   0  -6  76 NW8       30.56R WCI -14
$$

NOTE: "FAIR" INDICATES FEW OR NO CLOUDS BELOW 12,000 FEET WITH NO
SIGNIFICANT WEATHER AND/OR OBSTRUCTIONS TO VISIBILITY. WIND
SPEEDS ARE IN MILES-PER-HOUR.




USA.gov is the U.S. government's official web portal to all federal, state and local government web resources and services.